TIME,DELAY(SENSOR),PRES,T(CTD),SAL,OXYGEN,RAWTEMP,T(OPTODE),TCPHASE,FLUOR,BETA(BETA700),BETA(BETA412),BETA(BETA440),CDOM,C(CSC),ED(ED412.40),ED(ED444.00),ED(ED489.70),ED(ED554.30),LU(LU411.80),LU(LU443.40),LU(LU489.60),LU(LU554.10),COMP,TILTX,TILTX(TILTY),CHECK
1369172659,5808,497.0899963378906000,6.7691001892089840,34.1133003234863300,80.8951873779296900,594.5888061523438000,6.7589278221130370,48.7275581359863300,52,103,90,80,78,14878,2147747648,2147425307,2148008786,2147872713,2147630208,2147073490,2148245732,2147199433,1352,4,13,64635
1369172791,5808,486.4400024414062500,6.9697999954223630,34.1066017150878900,91.4477005004882800,588.5612182617188000,6.9531650543212890,47.4384689331054700,52,103,89,80,78,14882,2147742308,2147427026,2148005376,2147877302,2147625618,2147071698,2148243849,2147195986,703,4,13,60407
1369172937,5809,475.2999877929687500,7.1723999977111820,34.1059989929199200,97.7571182250976600,582.2758789062500000,7.1553459167480470,46.6540489196777340,51,104,87,79,78,14879,2147746688,2147426816,2148003446,2147876461,2147625517,2147077632,2148246226,2147203254,1009,4,13,32046
1369173080,5808,464.7900085449219000,7.2803997993469240,34.1058998107910160,104.0186004638671900,578.8438720703125000,7.2655911445617680,45.9435997009277340,51,104,89,80,78,14878,2147746971,2147424457,2148003904,2147877668,2147624448,2147076608,2148237549,2147199369,222,4,13,46795
1369173245,5808,451.8699951171875000,7.4488000869750980,34.0998001098632800,110.4735031127929700,573.6646728515625000,7.4317650794982910,45.2043113708496100,52,102,89,80,76,14876,2147745161,2147425517,2148004516,2147872429,2147625408,2147076964,2148238829,2147201426,3541,4,13,41168
1369173357,5807,441.1799926757812500,7.6588997840881350,34.0956993103027340,115.4618988037109400,566.5241699218750000,7.6604728698730470,44.5949096679687500,50,104,87,80,77,14878,2147742710,2147428690,2148005842,2147872841,2147622829,2147077814,2148237202,2147199643,2506,4,13,52267
1369173467,5806,430.5100097656250000,7.9239997863769530,34.0876007080078100,126.1744003295898400,558.7252197265625000,7.9097747802734375,43.4500389099121100,50,104,87,80,75,14878,2147742390,2147423606,2148005330,2147875766,2147622875,2147083126,2148238802,2147200292,1422,4,13,37035
1369173590,5808,418.7300109863281000,8.1687002182006840,34.0826988220214840,139.1557006835937500,550.6345214843750000,8.1678485870361330,42.1560707092285160,51,103,87,80,75,14882,2147742884,2147425261,2148004141,2147873197,2147621001,2147081563,2148235510,2147200182,450,4,13,776
1369173700,5807,408.1499938964844000,8.3355998992919920,34.0825004577636700,145.8190002441406200,545.6456298828125000,8.3267154693603520,41.5074310302734400,50,103,85,79,75,14879,2147737664,2147427181,2148001353,2147874541,2147621165,2147083538,2148235337,2147200996,1799,4,13,46755
1369173821,5807,397.1099853515625000,8.5687999725341800,34.0843009948730500,155.1493988037109400,538.3914794921875000,8.5573558807373050,40.6269302368164060,50,105,86,81,72,14877,2147738166,2147424804,2148004406,2147873782,2147619776,2147085933,2148234642,2147200237,3104,3,13,18724
1369173955,5808,386.0899963378906000,8.8036003112792970,34.0884017944335940,163.7109985351562500,530.9036254882812000,8.7949886322021480,39.8367500305175800,50,108,90,81,73,14878,2147734162,2147427474,2147999835,2147873801,2147618048,2147093376,2148227721,2147201984,2444,4,13,3466
1369174087,5811,375.6300048828125000,9.0118999481201170,34.0904006958007800,171.0359954833984400,524.6740722656250000,8.9923534393310550,39.1872100830078100,50,102,87,79,72,14881,2147738614,2147426377,2148004507,2147870317,2147617088,2147091227,2148225380,2147202624,2377,4,13,38097
1369174255,5807,362.2200012207031000,9.5052995681762700,34.1044006347656250,184.1508941650390600,508.8911132812500000,9.4910936355590820,37.9993209838867200,50,106,89,80,72,14876,2147734601,2147427620,2148002788,2147876416,2147613568,2147091766,2148221677,2147200274,1587,4,13,36005
1369174376,5808,350.9899902343750000,9.8442001342773440,34.1162986755371100,191.4111022949218800,497.5918884277344000,9.8470382690429690,37.3268203735351560,49,104,86,80,70,14877,2147733595,2147425371,2148006646,2147874697,2147613302,2147094372,2148222518,2147204288,1515,4,13,57499
1369174489,5808,340.7600097656250000,10.1808996200561520,34.1329002380371100,198.1298980712890600,487.1578063964844000,10.1749496459960940,36.7237586975097660,49,103,87,80,70,14881,2147733101,2147425197,2148004105,2147872054,2147610496,2147097362,2148216502,2147205961,1087,3,14,13369
1369174621,5805,328.6700134277344000,10.5975999832153320,34.1454010009765600,203.5625000000000000,473.9108886718750000,10.5902204513549800,36.1687316894531250,50,102,84,80,70,14880,2147732470,2147426569,2148006116,2147873078,2147608749,2147099675,2148218395,2147204553,789,4,13,65501
1369174731,5805,317.8500061035156000,10.9538002014160160,34.1528015136718750,205.8883972167968800,462.9779968261719000,10.9321203231811520,35.8484306335449200,49,104,86,79,69,14876,2147730523,2147427062,2148007744,2147875986,2147606445,2147098349,2148221275,2147208402,671,4,13,9961
1369174843,5810,307.1900024414062500,11.4133996963500980,34.1738014221191400,209.8294067382812500,447.6041870117187500,11.4116897583007810,35.3661117553710940,49,104,88,79,69,14880,2147729088,2147428736,2148013604,2147874651,2147602285,2147102217,2148221504,2147205997,170,3,14,47153
1369174975,5809,296.1199951171875000,12.0419998168945310,34.2145996093750000,212.0187072753906200,426.9125976562500000,12.0550699234008790,34.9079589843750000,47,105,87,79,69,14877,2147729920,2147433014,2148023488,2147875419,2147601481,2147113572,2148220361,2147204315,3198,3,13,60793
1369175110,5806,286.2000122070312500,12.6213998794555660,34.2421989440918000,212.8025970458984400,409.1223144531250000,12.6064796447753900,34.5828895568847660,49,104,84,79,69,14873,2147724699,2147433737,2148029696,2147873974,2147597275,2147117165,2148220681,2147208996,1370,3,13,7250
1369175275,5808,274.8999938964844000,12.9298000335693360,34.2677001953125000,215.0879058837890600,397.6453857421875000,12.9614295959472660,34.2749481201171900,48,103,88,81,67,14876,2147720054,2147431405,2148019538,2147871460,2147597869,2147120128,2148211995,2147206217,298,3,14,62150
1369175463,5809,261.1900024414062500,13.8576002120971680,34.3241996765136700,214.8724060058593800,369.1395874023437500,13.8406400680542000,33.8501892089843750,47,103,86,80,67,14877,2147722989,2147446957,2148069083,2147875026,2147593526,2147132105,2148234368,2147209069,3498,3,14,15029
1369175584,5807,250.8699951171875000,14.6578998565673830,34.4029998779296900,214.5859985351562500,339.9902038574219000,14.7366895675659180,33.4291915893554700,49,103,88,80,67,14872,2147723282,2147456073,2148096054,2147875200,2147588269,2147145252,2148245970,2147211748,2267,3,14,2384
1369175719,5807,239.6100006103515600,15.3591003417968750,34.4818000793457000,214.1302032470703000,319.0524902343750000,15.3787899017333980,33.1455383300781250,48,104,87,80,67,14866,2147719360,2147472347,2148137490,2147877211,2147585078,2147159872,2148257462,2147213092,1043,3,14,28827
1369175851,5808,228.2899932861328000,16.2884998321533200,34.5872993469238300,215.8773040771484400,290.1585083007812500,16.2632694244384770,32.6309814453125000,48,107,86,79,65,14863,2147720237,2147495835,2148198747,2147870765,2147582637,2147179986,2148282011,2147218276,171,4,14,63967
1369175972,5806,217.6799926757812500,16.8367996215820300,34.6557006835937500,215.2416992187500000,271.6953125000000000,16.8277301788330080,32.4019813537597660,48,109,87,81,66,14857,2147724242,2147530048,2148274331,2147873865,2147581147,2147205970,2148318006,2147220324,3059,3,14,6304
1369176095,5807,206.5599975585937500,17.2919006347656250,34.7099990844726560,215.0359039306640600,256.6242980957031000,17.2882099151611330,32.2002105712890600,49,109,87,80,65,14859,2147734482,2147585152,2148401444,2147874825,2147584685,2147239515,2148378486,2147229037,1556,3,15,42778
1369176205,5809,197.5299987792968800,18.0076999664306640,34.7955017089843750,213.3307037353515600,232.8374938964843800,18.0146903991699220,31.9600791931152340,51,109,86,81,65,14853,2147750080,2147660443,2148549741,2147872173,2147590244,2147289974,2148450157,2147227273,44,2,14,55631
1369176260,5807,193.9199981689453000,18.1487007141113280,34.8185997009277340,213.4869995117187500,228.1941986083984400,18.1564807891845700,31.8872509002685550,53,109,89,81,64,14849,2147761024,2147694637,2148620214,2147877321,2147592704,2147311396,2148480630,2147231396,2827,3,15,64251
1369176315,5809,190.3600006103515600,18.3069992065429700,34.8406982421875000,213.3144073486328000,222.7561035156250000,18.3225498199462900,31.8213005065917970,52,110,90,81,64,14844,2147769572,2147734802,2148695469,2147877385,2147597019,2147332086,2148515273,2147234203,2504,3,15,53374
1369176390,5810,185.9299926757812500,18.6604995727539060,34.8849983215332000,213.1584014892578000,212.8119964599609400,18.6262397766113280,31.6924991607666000,56,114,89,81,65,14838,2147785910,2147789476,2148798281,2147877952,2147601792,2147373494,2148566262,2147240969,2791,3,15,47480
1369176456,5809,182.7400054931640600,18.7453994750976560,34.9029006958007800,214.1571044921875000,209.1356964111328000,18.7385196685791000,31.5879592895507800,58,113,90,81,65,14843,2147805330,2147841892,2148903085,2147878171,2147607094,2147404626,2148621741,2147242349,3325,2,15,46515
1369176544,5809,178.5500030517578000,18.9585990905761720,34.9319000244140600,214.8217926025390600,202.1611022949218800,18.9515590667724600,31.4569606781005860,60,113,84,81,65,14842,2147829293,2147915593,2149035547,2147878976,2147617115,2147444608,2148684836,2147245366,2825,2,15,50408
1369176632,5808,174.6799926757812500,19.2479000091552730,34.9626998901367200,214.3148040771484400,192.9210052490234400,19.2338600158691400,31.3583602905273440,63,120,91,81,63,14827,2147858203,2147988178,2149171995,2147879533,2147629412,2147493824,2148747876,2147246381,2687,2,15,42596
1369176733,5808,171.0800018310547000,19.7217998504638670,35.0299987792968750,214.4176025390625000,177.9214935302734400,19.6922893524169920,31.1495704650878900,77,118,87,82,62,14823,2147878765,2148043913,2149257426,2147879680,2147636242,2147527661,2148787026,2147252681,1916,2,15,45571
1369176887,5808,167.0700073242187500,19.7901000976562500,35.0419006347656250,216.3253021240234400,175.0973968505859400,19.7786293029785160,31.0104503631591800,79,125,86,83,63,14809,2147936658,2148189513,2149515922,2147881581,2147660224,2147613686,2148899382,2147264192,607,2,15,53399
1369177017,5809,162.6000061035156200,19.9305000305175780,35.0592994689941400,216.6524963378906200,170.3504943847656200,19.9237899780273440,30.9296607971191400,84,120,84,81,61,14812,2148033526,2148410139,2149878720,2147885686,2147700306,2147719744,2149051044,2147273947,1392,2,15,10450
1369177105,5809,158.1600036621093800,19.9729995727539060,35.0644989013671900,216.8932037353515600,168.8668975830078000,19.9691600799560550,30.8971290588378900,83,122,88,82,63,14805,2148149906,2148659785,2150278793,2147887085,2147743698,2147849865,2149214601,2147287085,761,2,15,64455
1369177171,5808,154.3600006103515600,20.0757007598876950,35.0769004821777340,216.9810028076172000,165.5032958984375000,20.0720500946044920,30.8472003936767580,87,125,91,82,61,14802,2148263808,2148891821,2150646939,2147890139,2147788690,2147967899,2149376384,2147297371,651,2,15,34287
1369177237,5810,150.2500000000000000,20.2313003540039060,35.0929985046386700,216.5258941650390600,159.9651947021484400,20.2414894104003900,30.7972297668457030,95,127,90,82,63,14796,2148411529,2149174838,2151104448,2147899867,2147852032,2148112950,2149574171,2147314020,823,2,15,52994
1369177306,5811,146.0000000000000000,20.6800994873046880,35.1338996887207000,215.6510009765625000,146.7595062255859400,20.6457500457763670,30.6674804687500000,107,126,90,83,62,14781,2148565440,2149474733,2151585664,2147901869,2147906395,2148252681,2149757458,2147329499,754,2,15,7979
1369177372,5809,142.7200012207031200,20.7754001617431640,35.1444015502929700,215.9886016845703000,142.7416992187500000,20.7688102722167970,30.5964908599853500,115,129,90,83,63,14773,2148731648,2149785545,2152078802,2147910445,2147967424,2148388233,2149937664,2147346066,585,1,15,13016
1369177471,5809,138.8000030517578000,20.9491004943847660,35.1600990295410160,216.2792968750000000,137.1860046386718800,20.9390392303466800,30.5078506469726560,121,131,90,83,62,14764,2149015661,2150301037,2152837805,2147917824,2148067456,2148602889,2150214180,2147368722,2880,2,16,4249
1369177592,5811,134.8699951171875000,20.9995994567871100,35.1651992797851560,216.4918975830078000,135.7518005371093800,20.9829998016357420,30.4777507781982420,119,134,93,84,62,14754,2149484452,2151091355,2153917120,2147936457,2148238875,2148935917,2150613732,2147404242,2495,2,15,42950
1369177715,5807,130.9100036621093800,21.1723003387451170,35.1777992248535160,216.7144927978515600,130.1186981201172000,21.1557006835937500,30.3917102813720700,129,133,88,83,62,14750,2150053622,2151977645,2155111168,2147952585,2148442377,2149295808,2151041590,2147441682,3501,2,16,52722
1369177847,5806,126.9700012207031200,21.2991008758544920,35.1879997253418000,217.5366973876953000,125.7684020996093800,21.2891292572021500,30.2919902801513670,139,129,90,83,62,14742,2150692077,2152997814,2156491593,2147975835,2148668772,2149695872,2151531492,2147486939,94,2,15,11797
1369177981,5810,122.2399978637695300,21.3878002166748050,35.1954994201660160,218.1970062255859400,122.7108001708984400,21.3829307556152340,30.2180690765380860,139,134,91,83,62,14726,2151624054,2154400557,2158377472,2148015533,2149009005,2150259062,2152211666,2147552704,3196,2,16,47090
1369178058,5806,118.3099975585937500,21.4232006072998050,35.1986999511718750,219.1396026611328000,121.5858001708984400,21.4174499511718750,30.1549091339111330,141,136,90,86,61,14727,2152724544,2155981184,2160356544,2148060708,2149410477,2150905938,2152944630,2147623744,2672,2,16,35377
1369178135,5808,114.5100021362304700,21.4554004669189450,35.2032012939453100,219.7138061523437500,120.4695968627929700,21.4517097473144530,30.1107997894287100,145,132,90,84,62,14720,2154202404,2158044736,2162843062,2148116589,2149931026,2151693942,2153810715,2147709056,2735,2,16,17962
1369178223,5808,110.5800018310546900,21.4871997833251950,35.2056999206543000,220.1080932617187500,119.1356964111328100,21.4926490783691400,30.0734291076660160,148,133,90,84,61,14719,2156289609,2160808384,2166013568,2148193344,2150685613,2152776448,2154950537,2147820498,2589,2,16,39649
1369178313,5808,107.0800018310546900,21.8388004302978500,35.2392005920410160,221.5762939453125000,108.7945022583007800,21.8102207183837900,29.8645591735839840,170,134,93,87,60,14666,2159191158,2164602998,2170240658,2148300562,2151704246,2154222381,2156457846,2147977078,2512,2,15,57080
1369178456,5806,103.2300033569336000,21.8953990936279300,35.2498016357421900,226.5901031494140600,106.1516036987304700,21.8914394378662100,29.5818405151367200,171,136,97,83,62,14659,2163550765,2169964379,2175302564,2148420059,2153228809,2156180864,2158270089,2148171849,2028,1,16,33977
1369178612,5808,97.9899978637695300,22.1284008026123050,35.2751007080078100,229.3589935302734400,98.8429412841796900,22.1161403656005860,29.3535499572753900,176,140,90,84,61,14650,2172620946,2180856420,2185635867,2148711917,2156526153,2160383798,2162133156,2148582299,797,2,16,63724
1369178667,5806,95.1200027465820300,22.2082996368408200,35.2831993103027340,230.9866027832031200,96.2045669555664000,22.1973094940185550,29.2416801452636720,160,135,92,85,59,14647,2177664978,2186589421,2190435181,2148882486,2158549165,2162809691,2164173513,2148811264,959,2,15,29222
1369178722,5810,92.0899963378906200,22.3297996520996100,35.2919006347656250,232.9557952880859400,92.2817764282226600,22.3180198669433600,29.0983104705810550,119,127,93,86,60,14683,2182200009,2191294244,2194089298,2149077266,2160811547,2165389165,2166135652,2149037238,1205,2,16,54605
1369178777,5805,89.0000000000000000,22.3875999450683600,35.2927017211914060,234.1918029785156200,89.0543975830078100,22.4173793792724600,28.9991798400878900,91,130,93,84,61,14702,2187242148,2196026742,2197332800,2149243931,2163525092,2168500635,2168369883,2149274194,1086,2,16,13748
1369178832,5810,86.1500015258789000,22.5296001434326170,35.2985992431640600,235.4723052978515600,85.6856002807617200,22.5211296081542970,28.8966808319091800,84,125,90,85,58,14704,2191684964,2199994102,2200211885,2149474157,2166189750,2171491757,2170456228,2149501028,785,2,16,14873
1369178887,5809,83.7300033569336000,22.5886993408203120,35.3045005798339840,236.3314056396484400,83.2442169189453100,22.5963401794433600,28.8260593414306640,78,124,91,84,59,14701,2196476480,2204296237,2203535798,2149727890,2169033005,2174658998,2172613120,2149741787,819,1,16,43937
1369178944,5807,81.3600006103515600,22.6702995300292970,35.3152008056640600,236.9723968505859400,80.3761978149414000,22.6847305297851560,28.7602500915527340,74,124,89,86,60,14704,2201822162,2209241133,2207458733,2149930404,2172569005,2178593554,2175392274,2150025106,1187,1,16,37127
1369178999,5809,79.1999969482421900,22.9608993530273440,35.3305015563964840,238.5178070068359400,71.9767227172851600,22.9437694549560550,28.5835609436035160,70,126,92,88,57,14721,2209982454,2217569298,2215113097,2150442944,2177461613,2184075428,2179508260,2150472475,901,2,15,60727
1369179054,5806,77.3099975585937500,23.0125999450683600,35.3311996459960940,239.6394042968750000,70.0020980834961000,23.0047092437744140,28.5077991485595700,67,127,95,86,58,14721,2223324827,2232224310,2229162258,2151247104,2185500918,2193694162,2187296320,2151271945,362,2,16,47349
1369179109,5809,75.2399978637695300,23.0792007446289060,35.3330993652343750,240.0590972900390600,67.8911590576171900,23.0698699951171880,28.4623603820800780,67,123,92,84,58,14723,2234786806,2244930185,2241701924,2152132068,2193047917,2202363236,2193868480,2151979739,3165,2,16,13287
1369179164,5807,73.2099990844726600,23.2369003295898440,35.3424987792968750,240.9257049560547000,63.2030296325683600,23.2146606445312500,28.3645191192626950,65,125,91,85,58,14723,2235306432,2244136210,2240351789,2152339218,2195657874,2204736621,2195021833,2152086637,3489,1,16,35008
1369179219,5808,71.7300033569336000,23.2688999176025400,35.3457984924316400,242.0213012695312500,61.5361289978027340,23.2661590576171880,28.2945098876953120,65,127,94,85,57,14721,2242745380,2252053613,2248098989,2152975652,2201354496,2211250898,2200105115,2152640045,3471,1,16,56675
1369179297,5807,69.6800003051757800,23.3036994934082030,35.3480987548828100,242.8159027099609400,60.0365295410156250,23.3125000000000000,28.2404308319091800,64,123,93,85,57,14696,2252345197,2261892644,2257444928,2154030710,2210895012,2221163465,2206761444,2153412196,2618,1,16,58532
1369179352,5808,67.5699996948242200,23.4757995605468750,35.3530998229980500,243.2971038818359400,56.6876907348632800,23.4160308837890620,28.1772403717041000,60,127,93,85,61,14710,2245978413,2252349632,2246083437,2153407707,2211808932,2220376173,2204400557,2153074112,2311,2,15,16369
1369179407,5807,65.7500000000000000,23.6462001800537100,35.3646011352539060,243.6334075927734400,49.9484214782714840,23.6245307922363280,28.0786705017089840,61,125,93,85,58,14703,2239633170,2244302601,2237858880,2153381385,2210299428,2217083053,2200596562,2152663387,3031,1,16,1349
1369179462,5806,64.1900024414062500,23.6830997467041000,35.3656005859375000,244.8802947998047000,48.1330184936523440,23.6807193756103500,28.0012607574462900,60,128,91,84,58,14710,2271782729,2279952365,2274198454,2156667474,2233784045,2243439945,2220927570,2154976749,3506,1,16,8318
1369179539,5811,62.0600013732910160,23.7187995910644530,35.3685989379882800,245.7003936767578000,46.7978515625000000,23.7220592498779300,27.9486808776855470,61,125,92,84,55,14715,2280934363,2289526061,2283441883,2157917778,2245665709,2254852717,2228167597,2155755766,2823,1,16,47004
1369179616,5809,59.3600006103515600,23.8318996429443360,35.3707008361816400,246.0350036621093800,43.4326896667480500,23.8262996673584000,27.8926792144775400,57,123,90,83,54,14708,2292445988,2299931355,2292785865,2160031579,2261320301,2269305206,2236980626,2156968566,2518,1,16,20396
1369179671,5809,56.8899993896484400,23.8486003875732420,35.3704986572265600,246.3302001953125000,42.5665397644043000,23.8531398773193360,27.8690490722656250,57,125,92,85,56,14709,2301404059,2308334025,2301027638,2162209545,2275711012,2282520210,2245315053,2157913462,2438,1,16,31607
1369179726,5806,54.3400001525878900,23.8955001831054700,35.3690986633300800,246.3372955322265600,41.1510200500488300,23.8970108032226560,27.8511695861816400,57,125,92,86,58,14709,2313655707,2320241910,2313031058,2164989942,2291308379,2297408420,2254499126,2159164470,1972,1,16,44182
1369179781,5811,51.7700004577636700,23.9384002685546880,35.3684005737304700,246.2375946044922000,39.4505882263183600,23.9497203826904300,27.8346099853515620,55,125,94,85,56,13993,2328456374,2334108534,2326663177,2168224301,2308509750,2313340297,2264766957,2160717440,1529,2,16,2645
1369179836,5808,49.0200004577636700,23.9957008361816400,35.3684005737304700,246.1567993164062500,37.7415008544921900,24.0027103424072270,27.8169097900390620,55,125,89,85,52,14704,2338885732,2343200246,2335376603,2171622601,2325051209,2327951241,2273479140,2162018633,1562,2,16,16462
1369179891,5804,46.5000000000000000,24.0160007476806640,35.3700981140136700,246.0939941406250000,36.3474311828613300,24.0459403991699220,27.8026103973388670,55,124,93,87,56,14702,2359274788,2364690029,2357550418,2178036653,2345742738,2346464009,2285150793,2164101686,1866,1,17,12586
1369179948,5809,44.0400009155273440,24.1303005218505860,35.3695983886718750,245.7386016845703000,33.3649406433105500,24.1384792327880860,27.7812690734863280,55,122,94,84,59,14709,2372842459,2376427574,2367927588,2182198948,2366984850,2365902893,2298026605,2166247561,2221,1,16,55648
1369180003,5807,41.9000015258789060,24.3780994415283200,35.3676986694335940,244.5352020263672000,24.5818996429443360,24.4112300872802730,27.7255592346191400,53,125,92,84,51,14703,2390514267,2394152457,2386103808,2188165750,2392915876,2390780854,2314858240,2168807442,2076,1,17,57837
1369180058,5805,40.2400016784668000,24.9298000335693360,35.3708992004394500,242.5484924316406200,11.7959203720092770,24.8090305328369140,27.6555004119873050,55,120,91,84,58,14713,2395448219,2398872009,2390716699,2191541312,2400511113,2396051337,2317562934,2169369216,2453,2,16,26883
1369180302,5810,38.2000007629394500,25.0799007415771500,35.3734016418457000,239.1349029541015600,2.5956900119781494,25.0958309173584000,27.6936397552490230,52,118,90,84,59,14725,2406047277,2408186057,2401874486,2197778157,2414379584,2407878838,2325715629,2171678893,816,1,16,14107
1369180368,5805,36.1899986267089840,25.1203002929687500,35.3782997131347660,238.4243011474609400,1.1672879457473755,25.1404094696044920,27.7077903747558600,53,118,87,84,54,14719,2409064146,2410184603,2403194358,2201718564,2432752777,2423189760,2335299062,2173382582,57,2,16,65098
1369180434,5806,34.0099983215332000,25.1448001861572270,35.3819999694824200,237.8804931640625000,-0.0693351104855537,25.1790008544921880,27.7169494628906250,52,117,92,84,54,14728,2402653138,2404848768,2399527003,2206885284,2424985664,2411490185,2325546742,2173481389,3184,2,16,39283
1369180489,5809,32.0999984741210940,25.1418991088867200,35.3792991638183600,237.5314941406250000,0.3977180123329163,25.1644191741943360,27.7384204864501950,52,115,91,84,56,14722,2385164873,2384796580,2379075081,2206736009,2418644854,2401692781,2316863734,2172689563,3287,2,16,21321
1369180544,5809,30.0300006866455080,25.1417999267578120,35.3773002624511700,237.5108947753906200,0.3023206889629364,25.1674003601074220,27.7383499145507800,53,117,90,83,56,14720,2427010989,2428399049,2425508178,2224811693,2474630765,2455284489,2353717659,2179294948,3436,1,17,44966